Onweer radar Meer informatie blitzortung!


Regen radar Meer informatie rain snow radar


Bezoek onze andere website:

Template documentation
and downloads

And another site



15 daagse weersverwachting Donostia / San Sebastián (ES)

  • Overzicht
  • Per uur
  • 15 dagen
  • Extra
  • Vergelijk
  • Kaarten
  • Dagkaart
  • Meer »
  • Info
  • Statistieken
  • Directe link
    Temp 6h Neerslag Wind  
 08:00     17:45    Daglengte: 9:45 Vandaag
07:00
11°
9.3 mm
2
13:00
12°
12.3 mm
5
19:00
11°
 
3
 08:01     17:44    Daglengte: 9:43 Morgen
01:00
10°
5.0 mm
8
07:00
25.8 mm
5
13:00
10°
14.5 mm
3
19:00
21.1 mm
3
 08:02     17:43    Daglengte: 9:41 Vrijdag 15 Nov
01:00
24.9 mm
3
07:00
35.8 mm
4
13:00
55.6 mm
10
19:00
67.7 mm
5
Locatie info
Region: Basque Country
Latitude: 43.3128°N
Longitude: -1.9750°E
17 masl
Temp/Neerslag /Baro Onweer/Dauwpunt
    Temp Baro 1h Neerslag Dauwpunt Wind UV Bewolking  
 08:00     17:45    Daglengte: 9:45 Vandaag
04:00
11°
1004.3 hPa 2.4 mm
67%
10.0°
1
Windvlaag: 1.2 m/s
91%
05:00
11°
1004.4 hPa 2.4 mm
42%
9.7°
1
Windvlaag: 1.1 m/s
91%
06:00
11°
1005.1 hPa 2.4 mm
81%
10.1°
1
Windvlaag: 1.2 m/s
91%
07:00
11°
1006.3 hPa 2.1 mm
82%
10.3°
2
Windvlaag: 0.9 m/s
88%
08:00
11°
1007.7 hPa 2.4 mm
82%
10.3°
3
Windvlaag: 0.2 m/s
87%
09:00
11°
1009.1 hPa 1.9 mm
79%
9.7°
4
Windvlaag: 0.1 m/s
77%
10:00
11°
1010.4 hPa 1.7 mm
82%
9.4°
3
Windvlaag: 0.9 m/s
85%
11:00
12°
1010.9 hPa 1.9 mm
82%
9.3°
2
Windvlaag: 1 m/s
55%
12:00
12°
1011.4 hPa 1.8 mm
82%
9.4°
4
Windvlaag: -1.6 m/s
59%
13:00
12°
1011.4 hPa 2.7 mm
82%
9.5°
5
Windvlaag: -2.1 m/s
37%
14:00
12°
1011.5 hPa
77%
9.1°
5
Windvlaag: -2.4 m/s
43%
15:00
12°
1011.2 hPa
78%
8.5°
5
Windvlaag: -1.6 m/s
44%
16:00
12°
1010.9 hPa
78%
8.3°
4
Windvlaag: 1.7 m/s
44%
17:00
12°
1010.4 hPa
80%
7.8°
4
Windvlaag: 1.9 m/s
64%
18:00
11°
1010.0 hPa
73%
8.0°
4
Windvlaag: 1.8 m/s
75%
19:00
11°
1009.3 hPa
32%
7.9°
3
Windvlaag: 2.2 m/s
87%
20:00
11°
1008.3 hPa
61%
8.1°
3
Windvlaag: 2.7 m/s
81%
21:00
11°
1006.9 hPa
22%
7.6°
4
Windvlaag: 3.2 m/s
82%
22:00
11°
1005.4 hPa
21%
7.2°
4
Windvlaag: 3.3 m/s
77%
23:00
11°
1004.4 hPa
75%
6.8°
5
Windvlaag: 3.3 m/s
87%
 08:01     17:44    Daglengte: 9:43 Morgen
00:00
11°
1003.4 hPa 1.9 mm
80%
7.3°
6
Windvlaag: 4.1 m/s
87%
01:00
10°
1003.6 hPa 3.1 mm
82%
9.0°
8
Windvlaag: 4.1 m/s
90%
02:00
10°
Voelt als: 6.4°
1003.6 hPa 3.8 mm
82%
8.5°
8
Windvlaag: 4.3 m/s
91%
03:00
Voelt als: 5.3°
1003.7 hPa 5.3 mm
82%
7.8°
8
Windvlaag: 3.8 m/s
91%
04:00
Voelt als: 4.9°
1003.2 hPa 5.4 mm
82%
6.9°
7
Windvlaag: 1.6 m/s
91%
05:00
Voelt als: 5.1°
1002.5 hPa 4.3 mm
82%
6.8°
5
Windvlaag: 2.4 m/s
90%
06:00
Voelt als: 5.0°
1002.1 hPa 3.6 mm
82%
6.4°
5
Windvlaag: 2.5 m/s
90%
07:00
Voelt als: 4.8°
1001.7 hPa 3.4 mm
82%
6.2°
5
Windvlaag: 2.5 m/s
87%
08:00
Voelt als: 4.9°
1001.2 hPa 4.6 mm
82%
5.6°
4
Windvlaag: 2.5 m/s
77%
09:00
Voelt als: 4.5°
1001.2 hPa 4.9 mm
80%
5.3°
6
Windvlaag: 2.4 m/s
86%
10:00
Voelt als: 5.4°
1000.8 hPa 5.0 mm
77%
4.3°
6
Windvlaag: 1.8 m/s
53%
11:00
Voelt als: 6.3°
1000.5 hPa
72%
3.7°
5
Windvlaag: 2.5 m/s
78%
12:00
10°
Voelt als: 7.5°
1000.1 hPa
71%
3.4°
4
Windvlaag: 1.5 m/s
74%
13:00
10°
998.9 hPa
72%
3.7°
3
Windvlaag: 0.7 m/s
73%
14:00
11°
997.9 hPa 5.2 mm
82%
3.6°
4
Windvlaag: 0.6 m/s
82%
15:00
10°
997.3 hPa 5.3 mm
82%
4.4°
4
Windvlaag: 0.4 m/s
69%
16:00
10°
Voelt als: 8.2°
997.1 hPa 5.2 mm
81%
4.6°
3
Windvlaag: 0.4 m/s
62%
17:00
Voelt als: 7.4°
997.0 hPa
68%
5.4°
3
Windvlaag: 0.9 m/s
45%
18:00
Voelt als: 6.4°
997.2 hPa 5.4 mm
63%
5.2°
4
Windvlaag: 0.6 m/s
77%
19:00
Voelt als: 6.3°
997.6 hPa
16%
5.6°
3
Windvlaag: 0.6 m/s
61%
20:00
Voelt als: 6.2°
997.8 hPa
16%
5.7°
3
Windvlaag: 0.6 m/s
73%
21:00
Voelt als: 5.3°
998.7 hPa 5.6 mm
22%
5.9°
4
Windvlaag: 1 m/s
85%
22:00
Voelt als: 5.8°
1000.3 hPa 5.9 mm
85%
6.4°
3
Windvlaag: 1.2 m/s
96%
23:00
Voelt als: 5.1°
1000.8 hPa 4.7 mm
96%
6.6°
3
Windvlaag: 1.8 m/s
94%
 08:02     17:43    Daglengte: 9:41 Vrijdag 15 Nov
00:00
Voelt als: 5.1°
1001.1 hPa 4.4 mm
98%
5.8°
3
Windvlaag: 1.2 m/s
97%
01:00
Voelt als: 5.0°
1001.2 hPa 4.3 mm
100%
6.6°
3
Windvlaag: 1.4 m/s
96%
02:00
Voelt als: 4.6°
1001.1 hPa 4.3 mm
94%
6.9°
4
Windvlaag: 1.6 m/s
96%
03:00
Voelt als: 4.4°
1001.4 hPa 6.1 mm
93%
7.0°
4
Windvlaag: 2 m/s
97%
04:00
Voelt als: 4.8°
1001.8 hPa 5.5 mm
96%
7.1°
3
Windvlaag: 1.5 m/s
83%
05:00
Voelt als: 3.8°
1002.2 hPa 6.1 mm
98%
7.3°
5
Windvlaag: 1.7 m/s
75%
06:00
Voelt als: 3.4°
1002.6 hPa 5.8 mm
92%
6.9°
6
Windvlaag: 1.3 m/s
81%
07:00
Voelt als: 4.1°
1002.9 hPa 8.0 mm
42%
6.7°
4
Windvlaag: 1.4 m/s
94%
08:00
Voelt als: 4.0°
1002.4 hPa 12.9 mm
46%
6.4°
7
Windvlaag: 1.7 m/s
97%
09:00
Voelt als: 4.2°
1003.0 hPa 8.0 mm
100%
6.6°
8
Windvlaag: 1.7 m/s
92%
10:00
Voelt als: 4.6°
1003.6 hPa 8.7 mm
100%
7.5°
9
Windvlaag: 1.7 m/s
90%
11:00
Voelt als: 4.9°
1003.8 hPa 8.8 mm
100%
7.1°
9
Windvlaag: 1.8 m/s
97%
12:00
Voelt als: 5.0°
1004.0 hPa 8.4 mm
100%
7.5°
9
Windvlaag: 1.7 m/s
91%
13:00
Voelt als: 5.0°
1003.6 hPa 8.9 mm
100%
7.8°
10
Windvlaag: 1.8 m/s
87%
14:00
Voelt als: 5.3°
1003.3 hPa 8.8 mm
100%
7.8°
9
Windvlaag: 1.6 m/s
92%
15:00
Voelt als: 5.4°
1003.3 hPa 8.7 mm
100%
7.6°
9
Windvlaag: 1.2 m/s
90%
16:00
Voelt als: 4.8°
1003.5 hPa 14.8 mm
98%
7.5°
9
Windvlaag: 1.4 m/s
94%
17:00
Voelt als: 4.3°
1004.2 hPa 16.0 mm
99%
7.8°
9
Windvlaag: 1.1 m/s
91%
18:00
Voelt als: 4.6°
1005.3 hPa 10.0 mm
100%
7.5°
6
Windvlaag: 1.1 m/s
53%
19:00
Voelt als: 5.4°
1006.0 hPa 9.4 mm
100%
6.6°
5
Windvlaag: 1 m/s
50%
20:00
Voelt als: 5.0°
1006.7 hPa 14.9 mm
100%
6.7°
5
Windvlaag: 8.3 m/s
62%
21:00
Voelt als: 4.9°
1007.4 hPa 14.8 mm
100%
6.7°
5
Windvlaag: 8 m/s
57%
22:00
Voelt als: 4.6°
1008.1 hPa 15.0 mm
100%
7.0°
6
Windvlaag: 9.5 m/s
74%
23:00
Voelt als: 4.6°
1008.7 hPa 15.3 mm
100%
7.1°
5
Windvlaag: 8.7 m/s
74%
 08:04     17:42    Daglengte: 9:38 Zaterdag 16 Nov
00:00
Voelt als: 4.2°
1009.4 hPa 15.8 mm
100%
7.2°
6
Windvlaag: 9.3 m/s
71% warningclass
01:00
Voelt als: 3.7°
1010.0 hPa 16.1 mm
100%
7.3°
6
Windvlaag: 1.3 m/s
84%
Temp/Neerslag /Baro Onweer/Dauwpunt
    Temp Baro Neerslag Dauwpunt Wind Bewolking  
 08:00     17:45    Daglengte: 9:45 Vandaag
04:00
11°
1004.3 hPa 2.4 mm 10.0°
1
91%
07:00
11°
1006.3 hPa 6.9 mm 10.3°
2
88%
10:00
11°
1010.4 hPa 5.9 mm 9.4°
3
85%
13:00
12°
1011.4 hPa 6.4 mm 9.5°
5
37%
16:00
12°
1010.9 hPa   8.3°
4
44%
19:00
11°
1009.3 hPa   7.9°
3
87%
22:00
11°
1005.4 hPa   7.2°
4
77%
 08:01     17:44    Daglengte: 9:43 Morgen
01:00
10°
1003.6 hPa 5.0 mm 9.0°
8
90%
04:00
Voelt als: 4.9°
1003.2 hPa 14.5 mm 6.9°
7
91%
07:00
Voelt als: 4.8°
1001.7 hPa 11.3 mm 6.2°
5
87%
10:00
Voelt als: 5.4°
1000.8 hPa 14.5 mm 4.3°
6
53%
13:00
10°
998.9 hPa   3.7°
3
73%
16:00
10°
Voelt als: 8.2°
997.1 hPa 15.7 mm 4.6°
3
62%
19:00
Voelt als: 6.3°
997.6 hPa 5.4 mm 5.6°
3
61%
22:00
Voelt als: 5.8°
1000.3 hPa 11.6 mm 6.4°
3
96%
 08:02     17:43    Daglengte: 9:41 Vrijdag 15 Nov
01:00
Voelt als: 5.0°
1001.2 hPa 13.4 mm 6.6°
3
96%
04:00
Voelt als: 4.8°
1001.8 hPa 15.9 mm 7.1°
3
83%
07:00
Voelt als: 4.1°
1002.9 hPa 19.9 mm 6.7°
4
94%
10:00
Voelt als: 4.6°
1003.6 hPa 29.6 mm 7.5°
9
90%
13:00
Voelt als: 5.0°
1003.6 hPa 26.0 mm 7.8°
10
87%
16:00
Voelt als: 4.8°
1003.5 hPa 32.3 mm 7.5°
9
94%
19:00
Voelt als: 5.4°
1006.0 hPa 35.5 mm 6.6°
5
50%
22:00
Voelt als: 4.6°
1008.1 hPa 44.7 mm 7.0°
6
74%
 08:04     17:42    Daglengte: 9:38 Zaterdag 16 Nov
01:00
Voelt als: 3.7°
1010.0 hPa 40.6 mm 7.3°
6
84%
04:00
Voelt als: 2.4°
1011.6 hPa 30.3 mm 6.9°
8
77%
07:00
Voelt als: 2.4°
1012.4 hPa 31.2 mm 7.0°
8
88%
10:00
Voelt als: 4.0°
1013.4 hPa 31.3 mm 7.6°
9
73%
13:00
Voelt als: 5.6°
1014.3 hPa 32.8 mm 8.2°
10
57%
16:00
Voelt als: 5.2°
1014.8 hPa 35.0 mm 8.2°
10
70%
19:00
Voelt als: 4.3°
1015.4 hPa 38.0 mm 8.3°
10
85%
22:00
Voelt als: 4.5°
1014.7 hPa 38.5 mm 7.7°
8
88%
 08:05     17:41    Daglengte: 9:36 Zondag 17 Nov
01:00
Voelt als: 4.7°
1013.7 hPa 37.7 mm 7.0°
6
91%
04:00
Voelt als: 4.3°
1011.8 hPa 37.7 mm 6.0°
7
92%
07:00
Voelt als: 4.2°
1009.8 hPa 74.4 mm 5.1°
7
93%
10:00
Voelt als: 5.5°
1008.9 hPa 76.1 mm 6.6°
8
86%
13:00
10°
1007.9 hPa 39.1 mm 8.3°
9
79%
16:00
10°
1006.3 hPa 78.7 mm 8.3°
6
82%
19:00
10°
1005.1 hPa 40.8 mm 8.3°
4
85%
22:00
10°
1006.4 hPa 43.8 mm 8.9°
5
89%
 08:06     17:41    Daglengte: 9:35 Maandag 18 Nov
01:00
10°
1007.6 hPa 44.8 mm 9.4°
7
93%
04:00
10°
Voelt als: 5.9°
1008.7 hPa 49.5 mm 8.9°
9
92%
07:00
Voelt als: 4.8°
1009.8 hPa 46.9 mm 8.3°
11
92%
10:00
10°
Voelt als: 5.7°
1011.1 hPa 46.3 mm 8.5°
11
73%
13:00
10°
1012.1 hPa 49.8 mm 9.0°
11
56%
16:00
10°
Voelt als: 6.0°
1012.4 hPa 47.5 mm 8.7°
10
63%
19:00
Voelt als: 5.3°
1012.9 hPa 46.8 mm 8.4°
10
67%
22:00
Voelt als: 4.8°
1012.6 hPa 92.7 mm 6.8°
8
48%
 08:07     17:40    Daglengte: 9:33 Dinsdag 19 Nov
01:00
Voelt als: 4.5°
1012.2 hPa 92.7 mm 5.4°
7
28%
04:00
Voelt als: 3.5°
1010.3 hPa 93.5 mm 5.2°
7
56%
07:00
Voelt als: 2.5°
1008.5 hPa 48.3 mm 5.1°
7
87%
10:00
Voelt als: 2.6°
1007.7 hPa 50.1 mm 5.3°
7
90%
13:00
Voelt als: 2.7°
1006.7 hPa 100.7 mm 5.5°
9
93%
16:00
Voelt als: 3.6°
1005.8 hPa 100.9 mm 5.7°
9
92%
19:00
Voelt als: 3.5°
1005.1 hPa 101.0 mm 5.7°
9
91%
22:00
Voelt als: 4.1°
1004.1 hPa 101.0 mm 5.7°
10
84%
 08:09     17:39    Daglengte: 9:30 Woensdag 20 Nov
01:00
Voelt als: 4.8°
1003.1 hPa 201.9 mm 5.8°
9
85%
07:00
Voelt als: 4.4°
1002.4 hPa 202.1 mm 5.5°
8
10%
13:00
11°
1001.8 hPa 203.4 mm 5.6°
8
87%
19:00
Voelt als: 6.6°
1003.3 hPa 206.8 mm 5.9°
6
79%
 08:10     17:38    Daglengte: 9:28 Donderdag 21 Nov
01:00
Voelt als: 4.8°
1005.4 hPa 207.3 mm 5.6°
6
0%
07:00
Voelt als: 4.1°
1007.3 hPa 207.3 mm 5.1°
6
0%
13:00
12°
1008.8 hPa 207.3 mm 4.9°
5
76%
19:00
11°
1007.2 hPa 210.4 mm 6.1°
4
92%
 08:11     17:38    Daglengte: 9:27 Vrijdag 22 Nov
01:00
Voelt als: 5.8°
1006.2 hPa 212.3 mm 6.8°
5
92%
07:00
Voelt als: 5.3°
1001.9 hPa 212.4 mm 7.7°
7
92%
13:00
10°
Voelt als: 7.8°
1003.7 hPa 212.5 mm 8.0°
4
92%
19:00
12°
999.3 hPa 1.2 mm 7.7°
6
72%
 08:12     17:37    Daglengte: 9:25 Zaterdag 23 Nov
01:00
11°
1001.0 hPa 2.0 mm 7.4°
5
68%
07:00
10°
1001.5 hPa 1.9 mm 7.3°
5
66%
13:00
14°
1002.7 hPa 1.2 mm 8.9°
5
65%
19:00
12°
1003.9 hPa 1.0 mm 8.3°
3
63%
 08:14     17:36    Daglengte: 9:22 Zondag 24 Nov
01:00
11°
1004.9 hPa 0.7 mm 7.8°
5
61%
07:00
10°
1005.2 hPa 1.4 mm 7.8°
4
68%
13:00
14°
1005.6 hPa 0.4 mm 8.9°
3
67%
19:00
12°
1005.8 hPa 1.4 mm 8.7°
2
71%
 08:15     17:36    Daglengte: 9:21 Maandag 25 Nov
01:00
11°
1006.6 hPa 2.5 mm 8.3°
3
72%
07:00
10°
1006.6 hPa 1.7 mm 7.9°
3
76%
13:00
14°
1007.7 hPa 1.2 mm 9.1°
3
65%
19:00
12°
1008.2 hPa 0.9 mm 8.6°
2
53%
 08:16     17:35    Daglengte: 9:19 Dinsdag 26 Nov
01:00
11°
1009.1 hPa 0.5 mm 8.0°
3
51%
07:00
10°
Voelt als: 8.3°
1008.7 hPa 0.6 mm 7.4°
3
54%
13:00
14°
1008.9 hPa 1.1 mm 8.5°
4
54%
19:00
11°
1008.7 hPa 0.6 mm 8.2°
2
59%
 08:17     17:35    Daglengte: 9:18 Woensdag 27 Nov
01:00
10°
1009.7 hPa 0.4 mm 7.5°
4
60%
07:00
10°
1009.1 hPa 0.8 mm 7.5°
4
62%
13:00
14°
1009.8 hPa 1.1 mm 9.3°
4
61%
19:00
12°
1011.0 hPa 1.3 mm 8.8°
2
57%
 08:18     17:34    Daglengte: 9:16 Donderdag 28 Nov
01:00
10°
1012.5 hPa 0.8 mm 8.3°
2
55%
  CAPE Lifted Index Hail Supercell Tornado SRH 3km CL BTM PRES CL TOP PRES Swiss DWD icon SMHI TS
 08:00     17:45    Daglengte: 9:45 Vandaag
04:00 14 J/kg 5.5 K 0 % 0 % 0 % 0 m²/s² 0 0 5.74 3
05:00 28 J/kg 5.0 K 0 % 0 % 0 % 0 m²/s² 0 0 5.36 3
06:00 78 J/kg 3.0 K 0 % 0 % 0 % 0 m²/s² 0 0 3.48 61
07:00 172 J/kg 1.5 K 0 % 0 % 0 % 0 m²/s² 0 0 2.25 61
08:00 160 J/kg 1.8 K 0 % 0 % 0 % 0 m²/s² 0 0 2.82 80
09:00 89 J/kg 2.3 K 0 % 0 % 0 % 0 m²/s² 0 0 5.21 80
10:00 63 J/kg 3.9 K 0 % 0 % 0 % 0 m²/s² 0 0 11.4 80
11:00 55 J/kg 5.1 K 0 % 0 % 0 % 0 m²/s² 0 0 11.88 80
12:00 82 J/kg 5.2 K 0 % 0 % 0 % 0 m²/s² 0 0 11.23 80
13:00 137 J/kg 4.4 K 0 % 0 % 0 % 0 m²/s² 0 0 10.64 2
14:00 70 J/kg 5.8 K 0 % 0 % 0 % 0 m²/s² 0 0 10.93 3
15:00 61 J/kg 5.7 K 0 % 0 % 0 % 0 m²/s² 0 0 11.94 3
16:00 44 J/kg 5.8 K 0 % 0 % 0 % 0 m²/s² 0 0 12.04 3
17:00 28 J/kg 5.1 K 0 % 0 % 0 % 0 m²/s² 0 0 10.23 3
18:00 20 J/kg 4.8 K 0 % 0 % 0 % 0 m²/s² 0 0 9.78 3
19:00 12 J/kg 4.6 K 0 % 0 % 0 % 0 m²/s² 0 0 8.86 3
20:00 5 J/kg 4.3 K 0 % 0 % 0 % 0 m²/s² 0 0 8.77 3
21:00 0 J/kg 3.8 K 0 % 0 % 0 % 0 m²/s² 0 0 6.77 3
22:00 2 J/kg 3.6 K 0 % 0 % 0 % 0 m²/s² 0 0 6.63 3
23:00 3 J/kg 4.1 K 0 % 0 % 0 % 0 m²/s² 0 0 6.11 3
 08:01     17:44    Daglengte: 9:43 Morgen
00:00 2 J/kg 3.9 K 0 % 0 % 0 % 0 m²/s² 0 0 4.17 80
01:00 93 J/kg 3.3 K 0 % 0 % 0 % 0 m²/s² 0 0 3.63 80
02:00 176 J/kg 2.5 K 0 % 0 % 0 % 0 m²/s² 0 0 2.89 61
03:00 172 J/kg 2.2 K 0 % 0 % 0 % 0 m²/s² 0 0 2.56 63
04:00 132 J/kg 2.9 K 0 % 0 % 0 % 0 m²/s² 0 0 3.38 63
05:00 24 J/kg 3.3 K 0 % 0 % 0 % 0 m²/s² 0 0 3.72 61
06:00 1 J/kg 2.8 K 0 % 0 % 0 % 0 m²/s² 0 0 3.28 61
07:00 20 J/kg 1.6 K 0 % 0 % 0 % 0 m²/s² 0 0 2.35 80
08:00 51 J/kg 0.3 K 0 % 0 % 0 % 0 m²/s² 0 0 1.14 80
09:00 59 J/kg 1.5 K 0 % 0 % 0 % 0 m²/s² 0 0 1.92 80
10:00 0 J/kg 1.4 K 0 % 0 % 0 % 0 m²/s² 0 0 2.24 2
11:00 6 J/kg 0.4 K 0 % 0 % 0 % 0 m²/s² 0 0 3.16 3
12:00 88 J/kg 0.1 K 0 % 0 % 0 % 0 m²/s² 0 0 1.66 3
13:00 110 J/kg -0.3 K 0 % 0 % 0 % 0 m²/s² 0 0 1.41 3
14:00 112 J/kg -0.3 K 0 % 0 % 0 % 0 m²/s² 0 0 0.48 80
15:00 209 J/kg -1.0 K 0 % 0 % 0 % 0 m²/s² 0 0 0.44 3
16:00 248 J/kg -1.4 K 0 % 0 % 0 % 0 m²/s² 0 0 0.67 3
17:00 214 J/kg -1.3 K 0 % 0 % 0 % 0 m²/s² 0 0 1.34 1
18:00 98 J/kg -0.6 K 0 % 0 % 0 % 0 m²/s² 0 0 2.25 3
19:00 108 J/kg -0.4 K 0 % 0 % 0 % 0 m²/s² 0 0 1.94 1
20:00 48 J/kg 0.1 K 0 % 0 % 0 % 0 m²/s² 0 0 2.98 3
21:00 17 J/kg 0.7 K 0 % 0 % 0 % 0 m²/s² 0 0 2.23 3
22:00 19 J/kg 0.7 K 0 % 0 % 0 % 0 m²/s² 0 0 1.63 3
23:00 9 J/kg 0.9 K 0 % 0 % 0 % 0 m²/s² 0 0 1.98 80
 08:02     17:43    Daglengte: 9:41 Vrijdag 15 Nov
00:00 2 J/kg 1.1 K 0 % 0 % 0 % 0 m²/s² 0 0 2.27 80
01:00 1 J/kg 1.1 K 0 % 0 % 0 % 0 m²/s² 0 0 2.12 80
02:00 0 J/kg 1.1 K 0 % 0 % 0 % 0 m²/s² 0 0 1.76 80
03:00 4 J/kg 1.6 K 0 % 0 % 0 % 0 m²/s² 0 0 2.2 80
04:00 16 J/kg 1.7 K 0 % 0 % 0 % 0 m²/s² 0 0 2.12 80
05:00 0 J/kg 0.3 K 0 % 0 % 0 % 0 m²/s² 0 0 1.32 3
06:00 52 J/kg -0.6 K 0 % 0 % 0 % 0 m²/s² 0 0 0.63 3
07:00 191 J/kg -1.8 K 0 % 0 % 0 % 0 m²/s² 0 0 -1.08 3
08:00 565 J/kg -2.1 K 0 % 0 % 0 % 0 m²/s² 0 0 1.17 3
09:00 461 J/kg -1.6 K 0 % 0 % 0 % 0 m²/s² 0 0 1.76 3
10:00 401 J/kg -1.2 K 0 % 0 % 0 % 0 m²/s² 0 0 2.91 80
11:00 477 J/kg -1.6 K 0 % 0 % 0 % 0 m²/s² 0 0 2.21 80
12:00 511 J/kg -1.8 K 0 % 0 % 0 % 0 m²/s² 0 0 0.36 3
13:00 499 J/kg -1.9 K 0 % 0 % 0 % 0 m²/s² 0 0 0.53 3
14:00 492 J/kg -1.9 K 0 % 0 % 0 % 0 m²/s² 0 0 0.89 80
15:00 506 J/kg -1.9 K 0 % 0 % 0 % 0 m²/s² 0 0 -0.58 80
16:00 578 J/kg -2.5 K 0 % 0 % 0 % 0 m²/s² 0 0 -1.6 3
17:00 556 J/kg -2.3 K 0 % 0 % 0 % 0 m²/s² 0 0 -0.89 3
18:00 575 J/kg -2.4 K 0 % 0 % 0 % 0 m²/s² 0 0 -0.6 3
19:00 350 J/kg -2.0 K 0 % 0 % 0 % 0 m²/s² 0 0 -1.7 80
20:00 365 J/kg -1.7 K 0 % 0 % 0 % 0 m²/s² 0 0 -0.95 80
21:00 351 J/kg -1.5 K 0 % 0 % 0 % 0 m²/s² 0 0 -0.39 80
22:00 570 J/kg -2.4 K 0 % 0 % 0 % 0 m²/s² 0 0 -0.66 80
23:00 355 J/kg -2.4 K 0 % 0 % 0 % 0 m²/s² 0 0 -0.78 80
 08:04     17:42    Daglengte: 9:38 Zaterdag 16 Nov
00:00 245 J/kg -0.4 K 0 % 0 % 0 % 0 m²/s² 0 0 1.19 95
01:00 8 J/kg 1.6 K 0 % 0 % 0 % 0 m²/s² 0 0 1.96 80
Temp Baro Wind Neerslag
  EWN Forecast EWN WRFDA DWD ICON FMI HIRLAM MET Norway GFSWXSIM
 08:00     17:45    Daglengte: 9:45 Vandaag
04:00 10.8° 1004.3 hPa 1.4 m/s 2.4 mm 11.1° 1001.6 hPa 2.2 m/s 13.1 mm 10.6° 1005.0 hPa 0.9 m/s -1.8 mm 11.1° 1002.7 hPa 2.3 m/s 0.0 mm 11.0° 1004.5 hPa 1.3 m/s 2.4 mm 9.9° 1003.5 hPa 1.6 m/s 9.9° 1004.0 hPa 8.0 m/s 1.3 mm
07:00 11.0° 1006.3 hPa 2.1 m/s 6.9 mm 12.0° 1004.9 hPa 4.5 m/s 27.2 mm 11.3° 1007.1 hPa 1.6 m/s 1.1 mm 11.2° 1005.0 hPa 1.6 m/s 0.0 mm 11.1° 1006.4 hPa 4.3 m/s 3.8 mm 10.2° 1006.7 hPa 0.7 m/s 9.8° 1007.0 hPa 11.0 m/s 2.0 mm
10:00 11.4° 1010.4 hPa 2.5 m/s 5.9 mm 11.2° 1007.9 hPa 2.5 m/s 31.2 mm 11.5° 1011.3 hPa 2.3 m/s 1.9 mm 12.3° 1009.6 hPa 2.7 m/s 0.0 mm 11.5° 1010.5 hPa 2.7 m/s 2.6 mm 11.4° 1010.1 hPa 1.5 m/s 10.4° 1010.0 hPa 6.0 m/s 0.5 mm
13:00 12.2° 1011.4 hPa 4.8 m/s 6.4 mm 12.7° 1008.9 hPa 3.6 m/s 33.7 mm 12.3° 1011.9 hPa 4.7 m/s 0.7 mm 12.4° 1010.0 hPa 6.1 m/s 0.0 mm 11.5° 1011.6 hPa 4.0 m/s 1.3 mm 12.1° 1010.5 hPa 4.4 m/s 11.2° 1011.0 hPa 18.0 m/s 0.8 mm
16:00 12.0° 1010.9 hPa 4.4 m/s 0.0 mm 13.1° 1008.0 hPa 6.6 m/s 34.3 mm 12.2° 1011.5 hPa 4.2 m/s 0.2 mm 12.4° 1009.0 hPa 2.7 m/s 0.0 mm 11.7° 1011.3 hPa 6.0 m/s 0.7 mm 11.1° 1009.6 hPa 3.8 m/s 12.1° 1010.0 hPa 17.0 m/s 0.5 mm
19:00 10.8° 1009.3 hPa 3.4 m/s 0.0 mm 11.5° 1007.1 hPa 4.4 m/s 34.3 mm 10.7° 1009.9 hPa 1.7 m/s 0.1 mm 11.2° 1006.3 hPa 3.2 m/s 0.0 mm 10.9° 1010.0 hPa 5.5 m/s 0.0 mm 9.8° 1009.0 hPa 2.7 m/s 11.2° 1010.0 hPa 16.0 m/s 0.2 mm
22:00 10.8° 1005.4 hPa 4.2 m/s 0.0 mm 12.3° 1003.1 hPa 7.2 m/s 34.3 mm 10.3° 1005.8 hPa 0.9 m/s 0.0 mm 13.2° 1001.6 hPa 4.3 m/s 0.0 mm 10.6° 1006.1 hPa 5.4 m/s 0.0 mm 9.7° 1005.4 hPa 3.4 m/s 10.2° 1007.0 hPa 14.0 m/s 0.8 mm
 08:01     17:44    Daglengte: 9:43 Morgen
01:00 10.5° 1003.6 hPa 8.3 m/s 5.0 mm 10.9° 1002.6 hPa 7.9 m/s 37.5 mm 11.0° 1003.7 hPa 5.6 m/s 0.9 mm 11.6° 1001.3 hPa 8.5 m/s 0.0 mm 9.7° 1006.4 hPa 12.4 m/s 3.1 mm 9.8° 1003.9 hPa 5.3 m/s 9.9° 1004.0 hPa 16.0 m/s 0.8 mm
04:00 8.4° 1003.2 hPa 6.9 m/s 14.5 mm 9.5° 1000.9 hPa 7.0 m/s 57.3 mm 8.4° 1004.7 hPa 6.9 m/s 9.0 mm 8.1° 999.5 hPa 5.7 m/s 0.0 mm 8.2° 1004.9 hPa 9.7 m/s 6.5 mm 8.6° 1002.9 hPa 6.8 m/s 8.5° 1003.0 hPa 25.0 m/s 8.6 mm
07:00 7.8° 1001.7 hPa 5.2 m/s 11.3 mm 7.5° 999.4 hPa 5.6 m/s 63.2 mm 8.0° 1002.8 hPa 2.1 m/s 2.6 mm 6.6° 999.3 hPa 5.3 m/s 0.0 mm 8.0° 1002.9 hPa 7.6 m/s 2.0 mm 7.3° 1001.9 hPa 3.7 m/s 7.0° 1002.0 hPa 21.0 m/s 20.6 mm
10:00 8.4° 1000.8 hPa 5.7 m/s 14.5 mm 7.0° 998.7 hPa 6.9 m/s 68.3 mm 8.9° 1002.0 hPa 3.3 m/s 1.4 mm 7.7° 995.9 hPa 6.8 m/s 0.0 mm 9.3° 1001.8 hPa 6.1 m/s 0.0 mm 7.8° 1001.6 hPa 4.0 m/s 6.3° 1002.0 hPa 21.0 m/s 15.2 mm
13:00 10.5° 998.9 hPa 3.3 m/s 0.0 mm 9.6° 997.4 hPa 4.7 m/s 70.9 mm 10.5° 999.8 hPa 1.1 m/s 0.3 mm 10.4° 993.4 hPa 6.8 m/s 0.0 mm 11.3° 999.6 hPa 2.3 m/s 0.0 mm 8.0° 1000.0 hPa 5.6 m/s 8.4° 999.0 hPa 11.0 m/s 1.5 mm
16:00 9.6° 997.1 hPa 2.6 m/s 15.7 mm 9.6° 995.5 hPa 3.3 m/s 75.8 mm 9.4° 998.4 hPa 1.6 m/s 0.5 mm 11.4° 990.5 hPa 8.7 m/s 0.0 mm 9.4° 997.7 hPa 1.2 m/s 0.4 mm 9.3° 999.1 hPa 3.3 m/s 10.8° 995.0 hPa 9.0 m/s 0.0 mm
19:00 8.4° 997.6 hPa 3.4 m/s 5.4 mm 9.7° 995.4 hPa 0.5 m/s 75.8 mm 7.7° 998.8 hPa 1.1 m/s 0.1 mm 9.7° 987.3 hPa 13.9 m/s 0.0 mm 8.2° 998.7 hPa 2.5 m/s 0.7 mm 7.5° 1000.6 hPa 2.8 m/s 9.2° 997.0 hPa 11.0 m/s 0.0 mm
22:00 7.7° 1000.3 hPa 2.8 m/s 11.6 mm 7.7° 995.8 hPa 3.0 m/s 76.1 mm 7.1° 999.7 hPa 1.7 m/s 0.1 mm 7.9° 1000.7 hPa 2.9 m/s 1.9 mm 6.5° 1002.1 hPa 3.5 m/s 7.4° 1000.0 hPa 5.0 m/s 2.1 mm
 08:02     17:43    Daglengte: 9:41 Vrijdag 15 Nov
01:00 7.3° 1001.2 hPa 3.3 m/s 13.4 mm 6.7° 997.5 hPa 3.6 m/s 76.6 mm 7.9° 1000.5 hPa 2.5 m/s 1.5 mm 7.3° 1002.6 hPa 3.8 m/s 5.7 mm 6.3° 1002.6 hPa 3.8 m/s 6.5° 1001.0 hPa 10.0 m/s 5.6 mm
04:00 7.0° 1001.8 hPa 3.3 m/s 15.9 mm 6.4° 999.3 hPa 1.4 m/s 82.4 mm 7.3° 1001.1 hPa 0.6 m/s 1.7 mm 7.2° 1003.0 hPa 8.0 m/s 5.7 mm 7.2° 1001.9 hPa 4.3 m/s 6.6° 1001.0 hPa 23.0 m/s 5.0 mm
07:00 7.0° 1002.9 hPa 4.4 m/s 19.9 mm 8.3° 998.4 hPa 4.8 m/s 110.4 mm 6.5° 1001.4 hPa 0.8 m/s 0.3 mm 7.0° 1003.4 hPa 6.3 m/s 5.3 mm 6.4° 1000.8 hPa 6.1 m/s 7.2° 1001.0 hPa 28.0 m/s 2.8 mm
10:00 8.5° 1003.6 hPa 8.6 m/s 29.6 mm 11.2° 1000.5 hPa 9.3 m/s 115.8 mm 7.2° 1003.5 hPa 0.7 m/s 0.8 mm 8.4° 1004.2 hPa 10.4 m/s 2.3 mm 8.2° 1001.5 hPa 7.9 m/s 7.0° 1003.0 hPa 27.0 m/s 5.1 mm
13:00 9.1° 1003.6 hPa 9.9 m/s 26.0 mm 11.3° 1000.9 hPa 8.7 m/s 117.6 mm 8.4° 1004.1 hPa 1.2 m/s 0.7 mm 8.9° 1003.9 hPa 13.3 m/s 5.5 mm 9.2° 1002.3 hPa 11.2 m/s 7.4° 1004.0 hPa 20.0 m/s 7.9 mm
16:00 8.8° 1003.5 hPa 9.2 m/s 32.3 mm 10.6° 1000.5 hPa 5.7 m/s 121.7 mm 8.4° 1004.8 hPa 2.4 m/s 0.9 mm 8.6° 1003.7 hPa 13.6 m/s 4.1 mm 9.1° 1002.2 hPa 7.6 m/s 8.1° 1004.0 hPa 13.0 m/s 4.6 mm
19:00 8.3° 1006.0 hPa 5.0 m/s 35.5 mm 10.0° 1002.5 hPa 4.4 m/s 128.1 mm 7.8° 1007.4 hPa 1.7 m/s 0.5 mm 8.1° 1006.2 hPa 6.4 m/s 8.2 mm 7.8° 1004.9 hPa 4.4 m/s 7.8° 1005.0 hPa 10.0 m/s 3.5 mm
22:00 7.8° 1008.1 hPa 5.6 m/s 44.7 mm 10.5° 1003.8 hPa 5.6 m/s 131.6 mm 7.8° 1009.5 hPa 1.5 m/s 1.2 mm 7.3° 1008.4 hPa 6.8 m/s 7.6° 1006.9 hPa 2.2 m/s 7.0° 1007.0 hPa 3.0 m/s 3.6 mm
 08:04     17:42    Daglengte: 9:38 Zaterdag 16 Nov
01:00 7.3° 1010.0 hPa 6.4 m/s 40.6 mm 8.2° 1005.6 hPa 6.6 m/s 137.1 mm 8.1° 1010.8 hPa 3.2 m/s 2.3 mm 6.5° 1010.5 hPa 7.3 m/s 7.0° 1009.5 hPa 2.7 m/s 7.3° 1009.0 hPa 8.0 m/s 1.0 mm
04:00 6.6° 1011.6 hPa 7.8 m/s 30.3 mm 6.5° 1011.8 hPa 7.8 m/s 7.7° 1010.8 hPa 3.6 m/s 60.0 mm 7.2° 1010.0 hPa 11.0 m/s 0.5 mm
07:00 6.6° 1012.4 hPa 7.7 m/s 31.2 mm 6.5° 1012.5 hPa 8.1 m/s 7.9° 1012.6 hPa 3.3 m/s 61.6 mm 6.9° 1011.0 hPa 7.0 m/s 0.8 mm
10:00 8.1° 1013.4 hPa 8.5 m/s 31.3 mm 8.1° 1013.5 hPa 8.8 m/s 8.4° 1014.3 hPa 3.3 m/s 62.5 mm 7.3° 1012.0 hPa 10.0 m/s 0.2 mm
13:00 9.5° 1014.3 hPa 9.6 m/s 32.8 mm 9.7° 1014.5 hPa 9.6 m/s 8.2° 1013.9 hPa 4.1 m/s 64.3 mm 8.4° 1012.0 hPa 15.0 m/s 1.3 mm
16:00 9.2° 1014.8 hPa 9.8 m/s 35.0 mm 9.2° 1015.2 hPa 9.7 m/s 8.1° 1012.7 hPa 5.1 m/s 69.8 mm 9.9° 1012.0 hPa 16.0 m/s 0.2 mm
19:00 8.6° 1015.4 hPa 9.9 m/s 38.0 mm 8.7° 1015.9 hPa 9.8 m/s 7.8° 1013.5 hPa 4.2 m/s 72.9 mm 7.8° 1012.0 hPa 17.0 m/s 3.0 mm
22:00 8.3° 1014.7 hPa 8.1 m/s 38.5 mm 8.4° 1015.0 hPa 7.5 m/s 8.2° 1013.8 hPa 4.1 m/s 74.0 mm 7.5° 1012.0 hPa 19.0 m/s 3.0 mm
 08:05     17:41    Daglengte: 9:36 Zondag 17 Nov
01:00 8.1° 1013.7 hPa 6.4 m/s 37.7 mm 8.1° 1014.1 hPa 5.2 m/s 7.7° 1012.3 hPa 2.8 m/s 74.4 mm 8.0° 1011.0 hPa 24.0 m/s 1.0 mm
04:00 7.9° 1011.8 hPa 6.8 m/s 37.7 mm 8.0° 1012.2 hPa 6.0 m/s 6.8° 1009.4 hPa 3.3 m/s 74.4 mm 8.1° 1010.0 hPa 20.0 m/s 1.0 mm
07:00 7.9° 1009.8 hPa 7.0 m/s 74.4 mm 7.9° 1010.2 hPa 6.8 m/s 7.0° 1007.1 hPa 2.9 m/s 74.4 mm 8.2° 1008.0 hPa 13.0 m/s 0.0 mm
10:00 9.0° 1008.9 hPa 7.5 m/s 76.1 mm 9.1° 1009.2 hPa 7.3 m/s 7.3° 1006.4 hPa 3.1 m/s 76.1 mm 9.0° 1008.0 hPa 14.0 m/s 0.0 mm
13:00 10.3° 1007.9 hPa 8.5 m/s 39.1 mm 10.3° 1008.2 hPa 7.9 m/s 11.3° 1004.8 hPa 7.5 m/s 77.3 mm 8.9° 1007.0 hPa 17.0 m/s 1.0 mm
16:00 10.3° 1006.3 hPa 6.3 m/s 78.7 mm 10.4° 1006.7 hPa 5.8 m/s 10.5° 1003.3 hPa 7.6 m/s 78.7 mm 8.9° 1005.0 hPa 10.0 m/s 0.0 mm
19:00 10.3° 1005.1 hPa 4.4 m/s 40.8 mm 10.5° 1005.2 hPa 3.8 m/s 9.1° 1003.4 hPa 5.1 m/s 80.6 mm 8.9° 1006.0 hPa 11.0 m/s 1.0 mm
22:00 10.1° 1006.4 hPa 4.9 m/s 43.8 mm 10.3° 1006.5 hPa 4.8 m/s 9.1° 1004.8 hPa 4.1 m/s 82.6 mm 8.5° 1007.0 hPa 7.0 m/s 5.0 mm
 08:06     17:41    Daglengte: 9:35 Maandag 18 Nov
01:00 10.0° 1007.6 hPa 6.7 m/s 44.8 mm 10.1° 1007.7 hPa 5.9 m/s 9.8° 1007.0 hPa 5.2 m/s 84.6 mm 9.1° 1007.0 hPa 18.0 m/s 5.0 mm
04:00 9.6° 1008.7 hPa 8.9 m/s 49.5 mm 9.6° 1008.8 hPa 7.8 m/s 9.3° 1008.5 hPa 3.2 m/s 87.0 mm 9.0° 1008.0 hPa 28.0 m/s 12.0 mm
07:00 9.1° 1009.8 hPa 11.1 m/s 46.9 mm 9.2° 1009.9 hPa 9.7 m/s 9.5° 1009.9 hPa 4.1 m/s 88.7 mm 8.0° 1009.0 hPa 35.0 m/s 5.0 mm
10:00 9.7° 1011.1 hPa 10.7 m/s 46.3 mm 9.8° 1011.0 hPa 9.8 m/s 10.2° 1011.4 hPa 3.8 m/s 89.6 mm 8.0° 1012.0 hPa 28.0 m/s 3.0 mm
13:00 10.3° 1012.1 hPa 10.7 m/s 49.8 mm 10.5° 1012.1 hPa 9.9 m/s 10.7° 1011.7 hPa 3.5 m/s 90.6 mm 7.9° 1012.0 hPa 27.0 m/s 9.0 mm
16:00 9.9° 1012.4 hPa 10.4 m/s 47.5 mm 9.9° 1012.7 hPa 9.9 m/s 10.7° 1010.6 hPa 3.7 m/s 92.1 mm 8.6° 1011.0 hPa 22.0 m/s 3.0 mm
19:00 9.3° 1012.9 hPa 9.8 m/s 46.8 mm 9.4° 1013.2 hPa 10.0 m/s 8.3° 1010.7 hPa 2.7 m/s 92.6 mm 8.5° 1011.0 hPa 14.0 m/s 1.0 mm
22:00 8.6° 1012.6 hPa 8.3 m/s 92.7 mm 8.8° 1013.0 hPa 7.9 m/s 7.7° 1010.0 hPa 3.6 m/s 92.7 mm 8.0° 1010.0 hPa 18.0 m/s 0.0 mm
 08:07     17:40    Daglengte: 9:33 Dinsdag 19 Nov
01:00 8.2° 1012.2 hPa 7.2 m/s 92.7 mm 8.1° 1012.9 hPa 5.8 m/s 9.1° 1007.9 hPa 5.7 m/s 92.7 mm 7.9° 1008.0 hPa 26.0 m/s 0.0 mm
04:00 7.4° 1010.3 hPa 7.3 m/s 93.5 mm 7.2° 1010.8 hPa 5.8 m/s 8.7° 1007.0 hPa 5.9 m/s 93.5 mm 7.9° 1007.0 hPa 26.0 m/s 0.0 mm
07:00 6.5° 1008.5 hPa 6.8 m/s 48.3 mm 6.3° 1008.8 hPa 5.8 m/s 8.0° 1006.5 hPa 4.2 m/s 94.6 mm 7.7° 1007.0 hPa 22.0 m/s 2.0 mm
10:00 6.8° 1007.7 hPa 7.4 m/s 50.1 mm 6.5° 1007.8 hPa 7.1 m/s 7.8° 1006.6 hPa 3.1 m/s 99.3 mm 8.2° 1008.0 hPa 15.0 m/s 1.0 mm
13:00 7.1° 1006.7 hPa 8.7 m/s 100.7 mm 6.8° 1006.7 hPa 8.4 m/s 8.9° 1006.7 hPa 2.3 m/s 100.7 mm 9.2° 1007.0 hPa 19.0 m/s 0.0 mm
16:00 7.8° 1005.8 hPa 8.5 m/s 100.9 mm 7.2° 1005.9 hPa 8.4 m/s 11.8° 1005.5 hPa 3.2 m/s 100.9 mm 11.1° 1006.0 hPa 15.0 m/s 0.0 mm
19:00 7.8° 1005.1 hPa 9.1 m/s 101.0 mm 7.5° 1005.0 hPa 8.4 m/s 8.8° 1005.7 hPa 4.1 m/s 101.0 mm 10.7° 1006.0 hPa 23.0 m/s 0.0 mm
22:00 8.3° 1004.1 hPa 9.6 m/s 101.0 mm 8.1° 1003.9 hPa 8.2 m/s 9.0° 1006.1 hPa 6.3 m/s 101.0 mm 10.2° 1005.0 hPa 30.0 m/s 0.0 mm
 08:09     17:39    Daglengte: 9:30 Woensdag 20 Nov
01:00 8.8° 1003.1 hPa 9.2 m/s 51.0 mm 8.7° 1002.7 hPa 8.0 m/s 8.6° 1005.5 hPa 6.1 m/s 101.0 mm 10.2° 1005.0 hPa 27.0 m/s 1.0 mm
07:00 8.2° 1002.4 hPa 7.7 m/s 101.1 mm 8.0° 1002.0 hPa 6.9 m/s 8.7° 1005.1 hPa 5.2 m/s 101.1 mm 10.2° 1005.0 hPa 20.0 m/s 0.0 mm
13:00 11.2° 1001.8 hPa 7.8 m/s 102.1 mm 11.0° 1001.0 hPa 7.0 m/s 12.6° 1005.9 hPa 4.3 m/s 102.1 mm 11.6° 1007.0 hPa 21.0 m/s 0.0 mm
19:00 9.4° 1003.3 hPa 5.6 m/s 103.6 mm 9.3° 1002.6 hPa 5.0 m/s 9.1° 1007.3 hPa 1.6 m/s 103.6 mm 10.9° 1007.0 hPa 17.0 m/s 0.0 mm
 08:10     17:38    Daglengte: 9:28 Donderdag 21 Nov
01:00 8.1° 1005.4 hPa 6.2 m/s 103.6 mm 8.2° 1005.0 hPa 6.4 m/s 7.6° 1009.3 hPa 3.5 m/s 103.6 mm
07:00 7.4° 1007.3 hPa 5.6 m/s 103.6 mm 7.3° 1007.2 hPa 5.7 m/s 8.2° 1007.9 hPa 4.4 m/s 103.6 mm
13:00 12.5° 1008.8 hPa 4.9 m/s 103.6 mm 12.4° 1009.4 hPa 4.9 m/s 13.3° 1002.2 hPa 5.0 m/s 103.6 mm
19:00 10.7° 1007.2 hPa 4.0 m/s 105.6 mm 10.5° 1008.4 hPa 3.3 m/s 12.9° 994.4 hPa 11.4 m/s 105.6 mm
 08:11     17:38    Daglengte: 9:27 Vrijdag 22 Nov
01:00 8.7° 1006.2 hPa 5.4 m/s 106.2 mm 8.4° 1006.9 hPa 5.5 m/s 12.1° 998.5 hPa 4.8 m/s 106.2 mm
07:00 8.7° 1001.9 hPa 6.8 m/s 106.2 mm 8.5° 1002.1 hPa 6.9 m/s 10.6° 999.6 hPa 5.3 m/s 106.2 mm
13:00 9.7° 1003.7 hPa 3.6 m/s 106.2 mm 9.3° 1003.7 hPa 3.4 m/s 14.2° 1003.3 hPa 6.4 m/s 106.2 mm
19:00 11.5° 999.3 hPa 5.5 m/s 1.2 mm
 08:12     17:37    Daglengte: 9:25 Zaterdag 23 Nov
01:00 10.6° 1001.0 hPa 4.7 m/s 2.0 mm
07:00 10.1° 1001.5 hPa 4.6 m/s 1.9 mm
13:00 14.0° 1002.7 hPa 4.7 m/s 1.2 mm
19:00 11.8° 1003.9 hPa 3.2 m/s 1.0 mm
 08:14     17:36    Daglengte: 9:22 Zondag 24 Nov
01:00 10.8° 1004.9 hPa 4.5 m/s 0.7 mm
07:00 10.4° 1005.2 hPa 3.6 m/s 1.4 mm
13:00 13.8° 1005.6 hPa 3.3 m/s 0.4 mm
19:00 11.7° 1005.8 hPa 2.1 m/s 1.4 mm
 08:15     17:36    Daglengte: 9:21 Maandag 25 Nov
01:00 10.7° 1006.6 hPa 2.6 m/s 2.5 mm
07:00 10.4° 1006.6 hPa 2.7 m/s 1.7 mm
13:00 13.8° 1007.7 hPa 3.0 m/s 1.2 mm
19:00 11.6° 1008.2 hPa 1.6 m/s 0.9 mm
 08:16     17:35    Daglengte: 9:19 Dinsdag 26 Nov
01:00 10.6° 1009.1 hPa 2.9 m/s 0.5 mm
07:00 9.9° 1008.7 hPa 3.3 m/s 0.6 mm
13:00 13.8° 1008.9 hPa 3.8 m/s 1.1 mm
19:00 11.5° 1008.7 hPa 2.2 m/s 0.6 mm
 08:17     17:35    Daglengte: 9:18 Woensdag 27 Nov
01:00 10.4° 1009.7 hPa 3.8 m/s 0.4 mm
07:00 10.1° 1009.1 hPa 3.8 m/s 0.8 mm
13:00 13.8° 1009.8 hPa 3.8 m/s 1.1 mm
19:00 11.6° 1011.0 hPa 1.7 m/s 1.3 mm
 08:18     17:34    Daglengte: 9:16 Donderdag 28 Nov
01:00 10.4° 1012.5 hPa 2.3 m/s 0.8 mm
FMI Hirlam - 7.5 km EWN WRFDA - 12 km DWD ICON - 7 km GFS - 25 km Basiskaart